FW7729 Weather Reports


Display with metric or nautical units.
time (UTC)temp
F
wind
direction
speed
MPH
gust
MPH
rain 1hr
in
rain 24hr
in
rain mn
in
humidity
%
barometer
mb
20260502204214 57 320 1.0 0.0 0.00 0.00 0.00 55 1011.2
20260502203640 57 324 1.0 0.0 0.00 0.00 0.00 56 1011.3
20260502202536 57 321 1.0 0.0 0.00 0.00 0.00 57 1011.1
20260502202002 57 263 0.0 0.0 0.00 0.00 0.00 55 1011.3
20260502201428 57 31 0.0 0.0 0.00 0.00 0.00 58 1011.2
20260502195749 57 289 1.0 0.0 0.00 0.00 0.00 54 1011.1
20260502195215 57 237 1.0 0.0 0.00 0.00 0.00 58 1011.3
20260502193541 57 314 1.0 0.0 0.00 0.00 0.00 57 1011.5
20260502192437 57 305 1.0 0.0 0.00 0.00 0.00 55 1011.6
20260502191903 57 270 1.0 0.0 0.00 0.00 0.00 57 1011.6
20260502191329 56 249 0.0 0.0 0.00 0.00 0.00 59 1011.6
20260502190755 56 116 0.0 0.0 0.00 0.00 0.00 59 1011.9
20260502185651 56 97 0.0 0.0 0.00 0.00 0.00 57 1012.2
20260502184547 56 105 2.0 0.0 0.00 0.00 0.00 56 1012.4
20260502184013 56 127 1.0 0.0 0.00 0.00 0.00 57 1012.4
20260502183439 56 147 0.0 0.0 0.00 0.00 0.00 56 1012.5
20260502182905 56 14 1.0 0.0 0.00 0.00 0.00 59 1012.6
20260502182331 56 354 1.0 0.0 0.00 0.00 0.00 58 1012.7
20260502181757 56 251 1.0 0.0 0.00 0.00 0.00 59 1012.8
20260502181223 56 16 2.0 0.0 0.00 0.00 0.00 58 1012.8
20260502180649 56 102 0.0 0.0 0.00 0.00 0.00 58 1012.9
20260502180115 56 107 1.0 0.0 0.00 0.00 0.00 57 1013.0
20260502164346 54 162 0.0 0.0 0.00 0.00 0.00 67 1013.7
20260502163242 53 162 0.0 0.0 0.00 0.00 0.00 66 1013.8
20260502162708 53 79 1.0 0.0 0.00 0.00 0.00 67 1013.8
20260502162134 52 330 0.0 0.0 0.00 0.00 0.00 68 1013.9
20260502161030 52 297 0.0 0.0 0.00 0.00 0.00 68 1013.8
20260502160456 52 298 1.0 0.0 0.00 0.00 0.00 70 1013.9
20260502130737 46 54 1.0 0.0 0.00 0.00 0.00 81 1014.0
20260502122851 46 90 1.0 0.0 0.00 0.00 0.00 82 1014.0
20260502122317 46 292 0.0 0.0 0.00 0.00 0.00 82 1014.0
20260502120643 46 23 1.0 0.0 0.00 0.00 0.00 82 1014.0
20260502115539 46 305 1.0 0.0 0.00 0.00 0.00 82 1014.0
20260502113335 46 336 1.0 0.0 0.00 0.00 0.00 82 1014.0
20260502112801 46 343 0.0 0.0 0.00 0.00 0.00 82 1013.8
20260502112227 46 345 1.0 0.0 0.00 0.00 0.00 82 1014.0
20260502111653 46 295 1.0 0.0 0.00 0.00 0.00 81 1014.0
20260502110549 46 335 0.0 0.0 0.00 0.00 0.00 80 1013.9
20260502105444 47 354 1.0 0.0 0.00 0.00 0.00 79 1013.7
20260502104340 47 273 1.0 0.0 0.00 0.00 0.00 80 1013.4
20260502103806 47 324 0.0 0.0 0.00 0.00 0.00 81 1013.4
20260502103232 47 346 1.0 0.0 0.00 0.00 0.00 80 1013.1
20260502102658 48 324 0.0 0.0 0.00 0.00 0.00 80 1013.3
20260502101554 48 280 0.0 0.0 0.00 0.00 0.00 79 1013.2
20260502101020 48 359 1.0 0.0 0.00 0.00 0.00 79 1013.1
20260502100445 48 354 1.0 0.0 0.00 0.00 0.00 79 1013.1
20260502090917 50 343 2.0 0.0 0.00 0.00 0.00 78 1012.4
20260502090343 50 336 0.0 0.0 0.00 0.00 0.00 77 1012.4
20260502071254 52 11 0.0 0.0 0.00 0.00 0.00 84 1012.2
20260502070720 52 11 0.0 0.0 0.00 0.00 0.00 83 1012.3
20260502070146 52 12 0.0 0.0 0.00 0.00 0.00 83 1012.3
20260502063942 53 11 0.0 0.0 0.00 0.00 0.00 81 1012.1
20260502063408 53 11 0.0 0.0 0.00 0.00 0.00 80 1011.9
20260502062306 53 11 0.0 0.0 0.00 0.00 0.00 80 1012.1
20260502054418 54 322 0.0 0.0 0.00 0.00 0.00 79 1012.6
20260502053843 54 330 0.0 0.0 0.00 0.00 0.00 81 1012.6
20260502053308 54 332 0.0 0.0 0.00 0.00 0.00 80 1012.5
20260502052734 54 332 0.0 0.0 0.00 0.00 0.00 81 1012.5
20260502052201 54 332 0.0 0.0 0.00 0.00 0.00 82 1012.6
20260502051056 54 332 0.0 0.0 0.00 0.00 0.00 84 1012.6
20260502042122 55 332 0.0 0.0 0.00 0.00 0.00 83 1012.6
20260502041018 55 332 0.0 0.0 0.00 0.00 0.00 82 1012.4
20260502040444 56 332 0.0 0.0 0.00 0.00 0.00 81 1012.4
20260502035910 56 285 0.0 0.0 0.00 0.00 0.00 81 1012.2
20260502035335 56 14 1.0 0.0 0.00 0.00 0.00 80 1012.3
20260502034227 56 175 0.0 0.0 0.00 0.00 0.00 81 1012.1
20260502033653 57 175 0.0 0.0 0.00 0.00 0.00 79 1012.1
20260502032549 57 175 0.0 0.0 0.00 0.00 0.00 77 1012.1
20260502032015 57 175 0.0 0.0 0.00 0.00 0.00 76 1012.0
20260502030911 57 175 0.0 0.0 0.00 0.00 0.00 74 1011.6
20260502025807 58 175 0.0 0.0 0.00 0.00 0.00 74 1011.2
20260502025233 58 175 0.0 0.0 0.00 0.00 0.00 73 1011.1
20260502024659 58 175 0.0 0.0 0.00 0.00 0.00 73 1010.9
20260502024125 58 175 0.0 0.0 0.00 0.00 0.00 72 1010.9
20260502023021 58 177 0.0 0.0 0.00 0.00 0.00 70 1011.0
20260502021917 59 175 0.0 0.0 0.00 0.00 0.00 69 1011.1
20260502021343 59 175 1.0 0.0 0.00 0.00 0.00 69 1011.1
20260502020808 59 176 1.0 0.0 0.00 0.00 0.00 68 1011.1
20260502020234 59 170 0.0 0.0 0.00 0.00 0.00 68 1011.2
20260502015700 59 169 0.0 0.0 0.00 0.00 0.00 67 1011.1
20260502015126 60 185 1.0 0.0 0.00 0.00 0.00 66 1011.1
20260502014552 60 187 0.0 0.0 0.00 0.00 0.00 66 1011.0
20260502014018 60 236 0.0 0.0 0.00 0.00 0.00 66 1011.0
20260502012914 60 237 0.0 0.0 0.00 0.00 0.00 65 1010.7
20260502012340 60 169 0.0 0.0 0.00 0.00 0.00 65 1010.6
20260502011806 60 169 0.0 0.0 0.00 0.00 0.00 65 1010.4
20260502011232 60 169 1.0 0.0 0.00 0.00 0.00 64 1010.3
20260502010658 60 179 0.0 0.0 0.00 0.00 0.00 64 1010.3
20260502005554 61 188 0.0 0.0 0.00 0.00 0.00 64 1010.1
20260502005020 61 214 0.0 0.0 0.00 0.00 0.00 64 1010.1
20260502004446 61 177 0.0 0.0 0.00 0.00 0.00 63 1010.0
20260502003912 61 167 0.0 0.0 0.00 0.00 0.00 63 1010.0
20260502003338 61 168 1.0 0.0 0.00 0.00 0.00 61 1009.8
20260502002804 62 179 1.0 0.0 0.00 0.00 0.00 61 1009.9
20260502001130 62 173 0.0 0.0 0.00 0.00 0.00 57 1009.7
20260502000556 62 177 1.0 0.0 0.00 0.00 0.00 57 1009.8
20260501235452 63 160 0.0 0.0 0.00 0.00 0.00 55 1009.9
20260501234917 63 172 0.0 0.0 0.00 0.00 0.00 55 1009.7
20260501234343 63 172 0.0 0.0 0.00 0.00 0.00 54 1009.7
20260501233809 63 174 0.0 0.0 0.00 0.00 0.00 54 1009.6
20260501232705 63 176 0.0 0.0 0.00 0.00 0.00 54 1009.4
20260501232131 63 176 1.0 0.0 0.00 0.00 0.00 52 1009.3
20260501231557 63 161 0.0 0.0 0.00 0.00 0.00 52 1009.4
20260501231023 64 162 1.0 0.0 0.00 0.00 0.00 52 1009.3
20260501230449 64 214 0.0 0.0 0.00 0.00 0.00 52 1009.4
20260501225915 64 285 0.0 0.0 0.00 0.00 0.00 53 1009.4
20260501225341 64 168 0.0 0.0 0.00 0.00 0.00 53 1009.3
20260501224807 64 232 2.0 0.0 0.00 0.00 0.00 54 1009.4
20260501223132 63 202 1.0 0.0 0.00 0.00 0.00 55 1009.6
20260501222028 64 191 1.0 0.0 0.00 0.00 0.00 54 1009.8
20260501221454 64 151 2.0 0.0 0.00 0.00 0.00 53 1009.7
20260501220920 64 181 1.0 0.0 0.00 0.00 0.00 55 1009.6
20260501215246 64 184 1.0 0.0 0.00 0.00 0.00 53 1009.7
20260501214712 64 228 2.0 0.0 0.00 0.00 0.00 52 1009.8
20260501214138 64 223 2.0 0.0 0.00 0.00 0.00 51 1009.8
20260501213604 64 145 2.0 0.0 0.00 0.00 0.00 52 1009.8
20260501211400 64 166 4.0 0.0 0.00 0.00 0.00 51 1009.9